DELTA 1 DEB, 7054

Orbit data source: Space-Track

DELTA 1 DEB, 7054 is space debris in SSO originally from a launch on Tue, 06 Nov 1973 UTC launched from the Air Force Western Test Range (AFWTR). Debris objects in space refer to the collection of defunct objects orbiting the Earth. Examples of debris include non-operational satellites, rocket bodies, and fragments generated from explosions, collisions, or faulty payload assembly.

Loading next visibility...
Identifier
7054, 1973-086AW
Orbit
SSO
Country
Flag of USUS
Related business
Manufacturer
Unknown
Mission
Spacecraft
Bus & Motor
Unknown
Mass
Unknown
Launch date (UTC)
1973-11-06 (53 years ago)
Launch vehicle
Unknown
Launch site
Air Force Western Test Range (AFWTR)
Object type
Payload
Rocket body
Debris
Shape & HBR
Unknown shape, 0.3 m
Radar Cross Section
Medium (>0.1 m² and <1 m²)

Expand to show TLE details & history
Last TLE update: 4 hours ago

TLE from 4 hours ago
0 DELTA 1 DEB
1  7054U 73086AW  26132.85120376 -.00000328  00000-0 -68861-3 0  9993
2  7054 101.5168 170.9828 0312816 330.8672 204.3076 13.03817670495843
Epoch: 2026-05-12T20:25Z
TLE epoch observation values (Epoch: 2026-05-12T20:25:44.004Z)
Latitude
6.05161°
Longitude
175.16153°
Altitude
1,467.879 km
Speed
7.027 km/s
True Right ascension
23h 28m 51s
True Declination
6° 01' 08"
Sunlit
Object was in daylight at epoch
Visualization orbit readout
Latitude
Unknown
Longitude
Unknown
Altitude
Unknown
Speed
Unknown
Apparent Right ascension
Unknown
Apparent Declination
Unknown
Sunlit
N/A
Visualization observer readout
Local Sidereal Time
08:42:33
Azimuth
Unknown
Elevation
Unknown
Doppler factor
Unknown
Orbital elements
Apogee altitude
1,483.08 km
Perigee altitude
1,006.176 km
Semi-major axis
7,622.765 km
Eccentricity
0.03128
Inclination
101.5168°
RAAN
170.9828°
Arg. of periapsis
330.8672°
True anomaly
202.88303°
Mean anomaly
204.3076°
Eccentric anomaly
203.59033°
Mean motion
3.26118 °/min
Orbital period
110.39 mins
BSTAR
-0.00068861
Loading maneuver chart data...
Computing Atmospheric mass density...
Loading historical data...
Loading historical data...
Loading historical data...
Loading historical data...
Loading historical data...
Loading historical data...
Loading historical data...

Documentation

Showing up to 5 results
|